Weather History for KGRD - April, 2013

Change the Weather History Date:

Monday, April 1, 2013

  Actual Average (KAND) Record (KAND)
Temperature  
Mean Temperature 65 °F -  
Max Temperature 75 °F 71 °F 87 °F (1974)
Min Temperature 57 °F 46 °F 26 °F (1987)
Growing Degree Days 15 (Base 50)    
Moisture  
Dew Point 50 °F    
Average Humidity 72    
Maximum Humidity 100    
Minimum Humidity 23    
Precipitation  
Precipitation 0.22 in - - ()
Sea Level Pressure  
Sea Level Pressure 29.92 in    
Wind  
Wind Speed 7 mph (WSW)    
Max Wind Speed 16 mph    
Max Gust Speed 25 mph    
Visibility 10 miles    
Events Rain    
Averages and records for this station are not official NWS values.
T = Trace of Precipitation, MM = Missing Value Source: NWS Daily Summary

Daily Weather History Graph

Daily Weather History Graph

Search for Another Location

Airport or City:

Trip Planner

Search our weather history database for the weather conditions in past years. The results will help you decide how hot, cold, wet, or windy it might be!

Date:

Astronomy

Apr. 01, 2013 Rise Set
Actual Time 7:15 AM EDT 7:49 PM EDT
Civil Twilight 6:50 AM EDT 8:15 PM EDT
Nautical Twilight 6:20 AM EDT 8:44 PM EDT
Astronomical Twilight 5:50 AM EDT 9:15 PM EDT
Moon 12:45 AM EDT (4/1) 11:12 AM EDT (4/1)
Length of Visible Light 13h 24m
Length of Day
12h 34m
Waning Gibbous, 67% of the Moon is Illuminated
Apr 1
Waning Gibbous
Apr 3
Last Quarter
Apr 10
New
Apr 18
First Quarter
Apr 25
Full

Hourly Weather History & Observations

Time (EDT) Temp. Dew Point Humidity Pressure Visibility Wind Dir Wind Speed Gust Speed Precip Events Conditions
12:56 AM 61.0 °F 57.0 °F 87% 29.88 in 10.0 mi SW 11.5 mph - 0.01 in Rain Light Rain
2:56 AM 57.9 °F 57.0 °F 97% 29.87 in 6.0 mi SW 9.2 mph - 0.16 in Rain Light Rain
3:42 AM 57.2 °F 57.2 °F 100% 29.88 in 10.0 mi SW 8.1 mph - 0.01 in   Overcast
3:56 AM 57.9 °F 57.0 °F 97% 29.87 in 10.0 mi SW 8.1 mph - 0.02 in   Overcast
4:31 AM 57.2 °F 57.2 °F 100% 29.88 in 10.0 mi SW 9.2 mph - 0.00 in Rain Light Rain
4:56 AM 57.9 °F 57.0 °F 97% 29.87 in 7.0 mi SW 9.2 mph - 0.02 in Rain Light Rain
5:21 AM 57.2 °F 57.2 °F 100% 29.87 in 9.0 mi SW 6.9 mph - 0.01 in Rain Light Rain
5:56 AM 57.9 °F 57.0 °F 97% 29.86 in 10.0 mi Calm Calm - 0.01 in   Overcast
6:24 AM 57.2 °F 57.2 °F 100% 29.87 in 8.0 mi Calm Calm - N/A   Overcast
6:56 AM 57.0 °F 55.9 °F 96% 29.88 in 8.0 mi Calm Calm - N/A   Mostly Cloudy
7:56 AM 57.9 °F 57.0 °F 97% 29.92 in 10.0 mi WSW 3.5 mph - N/A   Overcast
8:10 AM 57.2 °F 57.2 °F 100% 29.93 in 10.0 mi WSW 4.6 mph - N/A   Overcast
8:51 AM 59.0 °F 57.2 °F 94% 29.94 in 8.0 mi Calm Calm - N/A   Overcast
9:24 AM 59.0 °F 57.2 °F 94% 29.95 in 9.0 mi Calm Calm - N/A   Overcast
9:56 AM 61.0 °F 57.9 °F 90% 29.94 in 10.0 mi Variable 3.5 mph - N/A   Overcast
10:04 AM 60.8 °F 57.2 °F 88% 29.95 in 10.0 mi West 4.6 mph - N/A   Mostly Cloudy
11:08 AM 64.4 °F 53.6 °F 68% 29.94 in 10.0 mi Calm Calm - N/A   Partly Cloudy
11:33 AM 64.4 °F 55.4 °F 73% 29.95 in 10.0 mi Calm Calm - N/A   Mostly Cloudy
11:44 AM 66.2 °F 53.6 °F 64% 29.95 in 10.0 mi Calm Calm - N/A   Scattered Clouds
11:56 AM 68.0 °F 54.0 °F 61% 29.94 in 10.0 mi Calm Calm - N/A   Scattered Clouds
1:56 PM 70.0 °F 48.0 °F 46% 29.91 in 10.0 mi West 6.9 mph - N/A   Mostly Cloudy
2:56 PM 73.0 °F 41.0 °F 31% 29.91 in 10.0 mi West 12.7 mph 19.6 mph N/A   Clear
4:56 PM 73.9 °F 34.0 °F 23% 29.89 in 10.0 mi WSW 12.7 mph 18.4 mph N/A   Clear
5:56 PM 73.0 °F 35.1 °F 25% 29.89 in 10.0 mi West 16.1 mph 25.3 mph N/A   Clear
6:56 PM 70.0 °F 36.0 °F 29% 29.91 in 10.0 mi West 12.7 mph 18.4 mph N/A   Clear
7:56 PM 66.9 °F 36.0 °F 32% 29.93 in 10.0 mi West 6.9 mph - N/A   Clear
8:56 PM 64.0 °F 37.9 °F 38% 29.94 in 10.0 mi West 3.5 mph - N/A   Clear
9:56 PM 61.0 °F 39.0 °F 44% 29.97 in 10.0 mi WNW 3.5 mph - N/A   Clear
10:56 PM 60.1 °F 37.0 °F 42% 29.98 in 10.0 mi WNW 4.6 mph - N/A   Clear
11:56 PM 59.0 °F 36.0 °F 42% 29.99 in 10.0 mi Variable 3.5 mph - N/A   Clear